Time,TemperatureF,DewpointF,PressureIn,WindDirection,WindDirectionDegrees,WindSpeedMPH,WindSpeedGustMPH,Humidity,HourlyPrecipIn,Conditions,Clouds,dailyrainin,SoftwareType,DateUTC
2013-10-14 00:04:00,31.0,-99.9,-100.00,North,-999,-999.0,-999.0,-999,0.00,,,0.00,,2013-10-14 05:04:00,
2013-10-14 00:13:00,31.0,-99.9,-100.00,North,-999,-999.0,-999.0,-999,0.00,,,0.00,,2013-10-14 05:13:00,
2013-10-14 00:23:00,31.0,-99.9,-100.00,North,-999,-999.0,-999.0,-999,0.00,,,0.00,,2013-10-14 05:23:00,
2013-10-14 00:30:00,30.0,-99.9,-100.00,North,-999,-999.0,-999.0,-999,0.00,,,0.00,,2013-10-14 05:30:00,
2013-10-14 00:53:00,30.0,-99.9,-100.00,North,-999,-999.0,-999.0,-999,0.00,,,0.00,,2013-10-14 05:53:00,
2013-10-14 01:02:00,30.0,-99.9,-100.00,North,-999,-999.0,-999.0,-999,0.00,,,0.00,,2013-10-14 06:02:00,
2013-10-14 01:13:00,30.0,-99.9,-100.00,North,-999,-999.0,-999.0,-999,0.00,,,0.00,,2013-10-14 06:13:00,
2013-10-14 01:22:00,30.0,-99.9,-100.00,North,-999,-999.0,-999.0,-999,0.00,,,0.00,,2013-10-14 06:22:00,
2013-10-14 01:30:00,30.0,-99.9,-100.00,North,-999,-999.0,-999.0,-999,0.00,,,0.00,,2013-10-14 06:30:00,
2013-10-14 01:52:00,30.0,-99.9,-100.00,North,-999,-999.0,-999.0,-999,0.00,,,0.00,,2013-10-14 06:52:00,
2013-10-14 02:02:00,30.0,-99.9,-100.00,North,-999,-999.0,-999.0,-999,0.00,,,0.00,,2013-10-14 07:02:00,
2013-10-14 02:12:00,30.0,-99.9,-100.00,North,-999,-999.0,-999.0,-999,0.00,,,0.00,,2013-10-14 07:12:00,
2013-10-14 02:22:00,30.0,-99.9,-100.00,North,-999,-999.0,-999.0,-999,0.00,,,0.00,,2013-10-14 07:22:00,
2013-10-14 02:30:00,29.0,-99.9,-100.00,North,-999,-999.0,-999.0,-999,0.00,,,0.00,,2013-10-14 07:30:00,
2013-10-14 02:52:00,29.0,-99.9,-100.00,North,-999,-999.0,-999.0,-999,0.00,,,0.00,,2013-10-14 07:52:00,
2013-10-14 03:03:00,29.0,-99.9,-100.00,North,-999,-999.0,-999.0,-999,0.00,,,0.00,,2013-10-14 08:03:00,
2013-10-14 03:12:00,29.0,-99.9,-100.00,North,-999,-999.0,-999.0,-999,0.00,,,0.00,,2013-10-14 08:12:00,
2013-10-14 03:22:00,29.0,-99.9,-100.00,North,-999,-999.0,-999.0,-999,0.00,,,0.00,,2013-10-14 08:22:00,
2013-10-14 03:30:00,29.0,-99.9,-100.00,North,-999,-999.0,-999.0,-999,0.00,,,0.00,,2013-10-14 08:30:00,
2013-10-14 03:52:00,29.0,-99.9,-100.00,North,-999,-999.0,-999.0,-999,0.00,,,0.00,,2013-10-14 08:52:00,
2013-10-14 04:02:00,29.0,-99.9,-100.00,North,-999,-999.0,-999.0,-999,0.00,,,0.00,,2013-10-14 09:02:00,
2013-10-14 04:12:00,29.0,-99.9,-100.00,North,-999,-999.0,-999.0,-999,0.00,,,0.00,,2013-10-14 09:12:00,
2013-10-14 04:22:00,29.0,-99.9,-100.00,North,-999,-999.0,-999.0,-999,0.00,,,0.00,,2013-10-14 09:22:00,
2013-10-14 04:30:00,29.0,-99.9,-100.00,North,-999,-999.0,-999.0,-999,0.00,,,0.00,,2013-10-14 09:30:00,
2013-10-14 04:53:00,29.0,-99.9,-100.00,North,-999,-999.0,-999.0,-999,0.00,,,0.00,,2013-10-14 09:53:00,
2013-10-14 05:03:00,29.0,-99.9,-100.00,North,-999,-999.0,-999.0,-999,0.00,,,0.00,,2013-10-14 10:03:00,
2013-10-14 05:13:00,29.0,-99.9,-100.00,North,-999,-999.0,-999.0,-999,0.00,,,0.00,,2013-10-14 10:13:00,
2013-10-14 05:23:00,29.0,-99.9,-100.00,North,-999,-999.0,-999.0,-999,0.00,,,0.00,,2013-10-14 10:23:00,
2013-10-14 05:30:00,29.0,-99.9,-100.00,North,-999,-999.0,-999.0,-999,0.00,,,0.00,,2013-10-14 10:30:00,
2013-10-14 05:53:00,29.0,-99.9,-100.00,North,-999,-999.0,-999.0,-999,0.00,,,0.00,,2013-10-14 10:53:00,
2013-10-14 06:03:00,29.0,-99.9,-100.00,North,-999,-999.0,-999.0,-999,0.00,,,0.00,,2013-10-14 11:03:00,
2013-10-14 06:12:00,29.0,-99.9,-100.00,North,-999,-999.0,-999.0,-999,0.00,,,0.00,,2013-10-14 11:12:00,
2013-10-14 06:22:00,29.0,-99.9,-100.00,North,-999,-999.0,-999.0,-999,0.00,,,0.00,,2013-10-14 11:22:00,
2013-10-14 06:30:00,29.0,-99.9,-100.00,North,-999,-999.0,-999.0,-999,0.00,,,0.00,,2013-10-14 11:30:00,
2013-10-14 06:52:00,29.0,-99.9,-100.00,North,-999,-999.0,-999.0,-999,0.00,,,0.00,,2013-10-14 11:52:00,
2013-10-14 07:02:00,29.0,-99.9,-100.00,North,-999,-999.0,-999.0,-999,0.00,,,0.00,,2013-10-14 12:02:00,
2013-10-14 07:12:00,29.0,-99.9,-100.00,North,-999,-999.0,-999.0,-999,0.00,,,0.00,,2013-10-14 12:12:00,
2013-10-14 07:23:00,29.0,-99.9,-100.00,North,-999,-999.0,-999.0,-999,0.00,,,0.00,,2013-10-14 12:23:00,
2013-10-14 07:30:00,30.0,-99.9,-100.00,North,-999,-999.0,-999.0,-999,0.00,,,0.00,,2013-10-14 12:30:00,
2013-10-14 07:52:00,30.0,-99.9,-100.00,North,-999,-999.0,-999.0,-999,0.00,,,0.00,,2013-10-14 12:52:00,
2013-10-14 08:02:00,30.0,-99.9,-100.00,North,-999,-999.0,-999.0,-999,0.00,,,0.00,,2013-10-14 13:02:00,
2013-10-14 08:12:00,30.0,-99.9,-100.00,North,-999,-999.0,-999.0,-999,0.00,,,0.00,,2013-10-14 13:12:00,
2013-10-14 08:22:00,30.0,-99.9,-100.00,North,-999,-999.0,-999.0,-999,0.00,,,0.00,,2013-10-14 13:22:00,
2013-10-14 08:30:00,32.0,-99.9,-100.00,North,-999,-999.0,-999.0,-999,0.00,,,0.00,,2013-10-14 13:30:00,
2013-10-14 08:52:00,32.0,-99.9,-100.00,North,-999,-999.0,-999.0,-999,0.00,,,0.00,,2013-10-14 13:52:00,
2013-10-14 09:02:00,32.0,-99.9,-100.00,North,-999,-999.0,-999.0,-999,0.00,,,0.00,,2013-10-14 14:02:00,
2013-10-14 09:12:00,32.0,-99.9,-100.00,North,-999,-999.0,-999.0,-999,0.00,,,0.00,,2013-10-14 14:12:00,
2013-10-14 09:22:00,32.0,-99.9,-100.00,North,-999,-999.0,-999.0,-999,0.00,,,0.00,,2013-10-14 14:22:00,
2013-10-14 09:30:00,36.0,-99.9,-100.00,North,-999,-999.0,-999.0,-999,0.02,,,0.02,,2013-10-14 14:30:00,
2013-10-14 09:52:00,36.0,-99.9,-100.00,North,-999,-999.0,-999.0,-999,0.02,,,0.02,,2013-10-14 14:52:00,
2013-10-14 10:02:00,36.0,-99.9,-100.00,North,-999,-999.0,-999.0,-999,0.02,,,0.02,,2013-10-14 15:02:00,
2013-10-14 10:11:00,36.0,-99.9,-100.00,North,-999,-999.0,-999.0,-999,0.02,,,0.02,,2013-10-14 15:11:00,
2013-10-14 10:22:00,36.0,-99.9,-100.00,North,-999,-999.0,-999.0,-999,0.02,,,0.02,,2013-10-14 15:22:00,
2013-10-14 10:30:00,42.0,-99.9,-100.00,North,-999,-999.0,-999.0,-999,0.20,,,0.22,,2013-10-14 15:30:00,
2013-10-14 10:54:00,42.0,-99.9,-100.00,North,-999,-999.0,-999.0,-999,0.20,,,0.22,,2013-10-14 15:54:00,
2013-10-14 11:03:00,42.0,-99.9,-100.00,North,-999,-999.0,-999.0,-999,0.20,,,0.22,,2013-10-14 16:03:00,
2013-10-14 11:13:00,42.0,-99.9,-100.00,North,-999,-999.0,-999.0,-999,0.20,,,0.22,,2013-10-14 16:13:00,
2013-10-14 11:23:00,42.0,-99.9,-100.00,North,-999,-999.0,-999.0,-999,0.20,,,0.22,,2013-10-14 16:23:00,
2013-10-14 11:30:00,47.0,-99.9,-100.00,North,-999,-999.0,-999.0,-999,0.03,,,0.25,,2013-10-14 16:30:00,
2013-10-14 11:54:00,47.0,-99.9,-100.00,North,-999,-999.0,-999.0,-999,0.03,,,0.25,,2013-10-14 16:54:00,
2013-10-14 12:02:00,47.0,-99.9,-100.00,North,-999,-999.0,-999.0,-999,0.03,,,0.25,,2013-10-14 17:02:00,
2013-10-14 12:12:00,47.0,-99.9,-100.00,North,-999,-999.0,-999.0,-999,0.03,,,0.25,,2013-10-14 17:12:00,
2013-10-14 12:23:00,47.0,-99.9,-100.00,North,-999,-999.0,-999.0,-999,0.03,,,0.25,,2013-10-14 17:23:00,
2013-10-14 12:30:00,50.0,-99.9,-100.00,North,-999,-999.0,-999.0,-999,0.01,,,0.26,,2013-10-14 17:30:00,
2013-10-14 12:52:00,50.0,-99.9,-100.00,North,-999,-999.0,-999.0,-999,0.01,,,0.26,,2013-10-14 17:52:00,
2013-10-14 13:02:00,50.0,-99.9,-100.00,North,-999,-999.0,-999.0,-999,0.01,,,0.26,,2013-10-14 18:02:00,
2013-10-14 13:13:00,50.0,-99.9,-100.00,North,-999,-999.0,-999.0,-999,0.01,,,0.26,,2013-10-14 18:13:00,
2013-10-14 13:22:00,50.0,-99.9,-100.00,North,-999,-999.0,-999.0,-999,0.01,,,0.26,,2013-10-14 18:22:00,
2013-10-14 13:30:00,51.0,-99.9,-100.00,North,-999,-999.0,-999.0,-999,0.00,,,0.26,,2013-10-14 18:30:00,
2013-10-14 13:52:00,51.0,-99.9,-100.00,North,-999,-999.0,-999.0,-999,0.00,,,0.26,,2013-10-14 18:52:00,
2013-10-14 14:02:00,51.0,-99.9,-100.00,North,-999,-999.0,-999.0,-999,0.00,,,0.26,,2013-10-14 19:02:00,
2013-10-14 14:11:00,51.0,-99.9,-100.00,North,-999,-999.0,-999.0,-999,0.00,,,0.26,,2013-10-14 19:11:00,
2013-10-14 14:23:00,51.0,-99.9,-100.00,North,-999,-999.0,-999.0,-999,0.00,,,0.26,,2013-10-14 19:23:00,
2013-10-14 14:30:00,51.0,-99.9,-100.00,North,-999,-999.0,-999.0,-999,0.00,,,0.26,,2013-10-14 19:30:00,
2013-10-14 14:53:00,51.0,-99.9,-100.00,North,-999,-999.0,-999.0,-999,0.00,,,0.26,,2013-10-14 19:53:00,
2013-10-14 15:03:00,51.0,-99.9,-100.00,North,-999,-999.0,-999.0,-999,0.00,,,0.26,,2013-10-14 20:03:00,
2013-10-14 15:11:00,51.0,-99.9,-100.00,North,-999,-999.0,-999.0,-999,0.00,,,0.26,,2013-10-14 20:11:00,
2013-10-14 15:22:00,51.0,-99.9,-100.00,North,-999,-999.0,-999.0,-999,0.00,,,0.26,,2013-10-14 20:22:00,
2013-10-14 15:30:00,51.0,-99.9,-100.00,North,-999,-999.0,-999.0,-999,0.00,,,0.26,,2013-10-14 20:30:00,
2013-10-14 15:52:00,51.0,-99.9,-100.00,North,-999,-999.0,-999.0,-999,0.00,,,0.26,,2013-10-14 20:52:00,
2013-10-14 16:03:00,51.0,-99.9,-100.00,North,-999,-999.0,-999.0,-999,0.00,,,0.26,,2013-10-14 21:03:00,
2013-10-14 16:12:00,51.0,-99.9,-100.00,North,-999,-999.0,-999.0,-999,0.00,,,0.26,,2013-10-14 21:12:00,
2013-10-14 16:22:00,51.0,-99.9,-100.00,North,-999,-999.0,-999.0,-999,0.00,,,0.26,,2013-10-14 21:22:00,
2013-10-14 16:30:00,50.0,-99.9,-100.00,North,-999,-999.0,-999.0,-999,0.00,,,0.26,,2013-10-14 21:30:00,
2013-10-14 16:55:00,50.0,-99.9,-100.00,North,-999,-999.0,-999.0,-999,0.00,,,0.26,,2013-10-14 21:55:00,
2013-10-14 17:04:00,50.0,-99.9,-100.00,North,-999,-999.0,-999.0,-999,0.00,,,0.26,,2013-10-14 22:04:00,
2013-10-14 17:13:00,50.0,-99.9,-100.00,North,-999,-999.0,-999.0,-999,0.00,,,0.26,,2013-10-14 22:13:00,
2013-10-14 17:24:00,50.0,-99.9,-100.00,North,-999,-999.0,-999.0,-999,0.00,,,0.26,,2013-10-14 22:24:00,
2013-10-14 17:30:00,49.0,-99.9,-100.00,North,-999,-999.0,-999.0,-999,0.00,,,0.26,,2013-10-14 22:30:00,
2013-10-14 17:54:00,49.0,-99.9,-100.00,North,-999,-999.0,-999.0,-999,0.00,,,0.26,,2013-10-14 22:54:00,
2013-10-14 18:03:00,49.0,-99.9,-100.00,North,-999,-999.0,-999.0,-999,0.00,,,0.26,,2013-10-14 23:03:00,
2013-10-14 18:12:00,49.0,-99.9,-100.00,North,-999,-999.0,-999.0,-999,0.00,,,0.26,,2013-10-14 23:12:00,
2013-10-14 18:22:00,49.0,-99.9,-100.00,North,-999,-999.0,-999.0,-999,0.00,,,0.26,,2013-10-14 23:22:00,
2013-10-14 18:30:00,46.0,-99.9,-100.00,North,-999,-999.0,-999.0,-999,0.00,,,0.26,,2013-10-14 23:30:00,
2013-10-14 18:53:00,46.0,-99.9,-100.00,North,-999,-999.0,-999.0,-999,0.00,,,0.26,,2013-10-14 23:53:00,
2013-10-14 19:02:00,46.0,-99.9,-100.00,North,-999,-999.0,-999.0,-999,0.00,,,0.26,,2013-10-15 00:02:00,
2013-10-14 19:12:00,46.0,-99.9,-100.00,North,-999,-999.0,-999.0,-999,0.00,,,0.26,,2013-10-15 00:12:00,
2013-10-14 19:22:00,46.0,-99.9,-100.00,North,-999,-999.0,-999.0,-999,0.00,,,0.26,,2013-10-15 00:22:00,
2013-10-14 19:30:00,44.0,-99.9,-100.00,North,-999,-999.0,-999.0,-999,0.00,,,0.26,,2013-10-15 00:30:00,
2013-10-14 19:52:00,44.0,-99.9,-100.00,North,-999,-999.0,-999.0,-999,0.00,,,0.26,,2013-10-15 00:52:00,
2013-10-14 20:02:00,44.0,-99.9,-100.00,North,-999,-999.0,-999.0,-999,0.00,,,0.26,,2013-10-15 01:02:00,
2013-10-14 20:12:00,44.0,-99.9,-100.00,North,-999,-999.0,-999.0,-999,0.00,,,0.26,,2013-10-15 01:12:00,
2013-10-14 20:22:00,44.0,-99.9,-100.00,North,-999,-999.0,-999.0,-999,0.00,,,0.26,,2013-10-15 01:22:00,
2013-10-14 20:30:00,43.0,-99.9,-100.00,North,-999,-999.0,-999.0,-999,0.00,,,0.26,,2013-10-15 01:30:00,
2013-10-14 20:53:00,43.0,-99.9,-100.00,North,-999,-999.0,-999.0,-999,0.00,,,0.26,,2013-10-15 01:53:00,
2013-10-14 21:03:00,43.0,-99.9,-100.00,North,-999,-999.0,-999.0,-999,0.00,,,0.26,,2013-10-15 02:03:00,
2013-10-14 21:12:00,43.0,-99.9,-100.00,North,-999,-999.0,-999.0,-999,0.00,,,0.26,,2013-10-15 02:12:00,
2013-10-14 21:22:00,43.0,-99.9,-100.00,North,-999,-999.0,-999.0,-999,0.00,,,0.26,,2013-10-15 02:22:00,
2013-10-14 21:30:00,42.0,-99.9,-100.00,North,-999,-999.0,-999.0,-999,0.00,,,0.26,,2013-10-15 02:30:00,
2013-10-14 21:52:00,42.0,-99.9,-100.00,North,-999,-999.0,-999.0,-999,0.00,,,0.26,,2013-10-15 02:52:00,
2013-10-14 22:03:00,42.0,-99.9,-100.00,North,-999,-999.0,-999.0,-999,0.00,,,0.26,,2013-10-15 03:03:00,
2013-10-14 22:12:00,42.0,-99.9,-100.00,North,-999,-999.0,-999.0,-999,0.00,,,0.26,,2013-10-15 03:12:00,
2013-10-14 22:23:00,42.0,-99.9,-100.00,North,-999,-999.0,-999.0,-999,0.00,,,0.26,,2013-10-15 03:23:00,
2013-10-14 22:30:00,42.0,-99.9,-100.00,North,-999,-999.0,-999.0,-999,0.00,,,0.26,,2013-10-15 03:30:00,
2013-10-14 22:55:00,42.0,-99.9,-100.00,North,-999,-999.0,-999.0,-999,0.00,,,0.26,,2013-10-15 03:55:00,
2013-10-14 23:04:00,42.0,-99.9,-100.00,North,-999,-999.0,-999.0,-999,0.00,,,0.26,,2013-10-15 04:04:00,
2013-10-14 23:14:00,42.0,-99.9,-100.00,North,-999,-999.0,-999.0,-999,0.00,,,0.26,,2013-10-15 04:14:00,
2013-10-14 23:24:00,42.0,-99.9,-100.00,North,-999,-999.0,-999.0,-999,0.00,,,0.26,,2013-10-15 04:24:00,
2013-10-14 23:30:00,41.0,-99.9,-100.00,North,-999,-999.0,-999.0,-999,0.00,,,0.26,,2013-10-15 04:30:00,
2013-10-14 23:54:00,41.0,-99.9,-100.00,North,-999,-999.0,-999.0,-999,0.00,,,0.26,,2013-10-15 04:54:00,